GFSGL_prec_cthk_273.txt.gz
RH
64 58 60 62 59 58 56 53 50 41 42 44 45 40 35 34 32 34 56 68 71 87 94 97 90 92 93 92 97 96 88 84 60 46 48 55 83 92 92 88 74 69 56
59 60 63 65 68 67 66 66 66 65 58 56 52 50 51 55 60 65 74 83 87 83 82 88 94 94 91 93 96 96 85 84 57 48 45 52 81 92 85 81 74 65 67
55 54 57 62 66 60 58 63 68 71 73 72 67 71 73 67 69 70 81 81 75 76 76 84 95 87 89 92 92 93 83 83 56 52 38 48 79 82 78 74 76 75 75
46 48 47 53 57 56 56 58 59 64 64 68 69 64 60 65 62 66 72 71 68 74 80 82 89 86 87 92 90 90 84 79 54 55 35 42 73 75 76 76 71 71 72
34 40 42 47 51 57 60 61 61 57 59 59 58 58 58 54 53 59 59 62 70 78 80 81 82 88 88 88 89 89 87 80 56 55 37 38 69 68 66 70 74 68 62
32 35 42 48 58 59 65 69 63 58 56 57 56 51 45 43 43 43 46 59 72 80 77 76 80 85 86 90 89 92 80 80 56 53 40 31 55 65 68 64 66 62 62
34 38 41 48 55 64 65 64 59 53 53 49 45 40 38 44 52 53 64 65 71 70 74 74 76 78 74 80 79 88 79 76 56 52 44 32 35 59 62 67 67 68 63
34 37 40 43 46 51 58 56 51 50 42 38 41 42 44 48 53 62 68 67 66 66 69 64 64 71 74 78 77 80 81 72 52 53 51 44 30 40 55 57 63 63 58
36 36 39 44 47 48 49 47 46 41 30 31 30 36 45 51 57 63 68 68 66 67 66 61 64 70 73 76 80 83 84 71 52 49 53 51 36 32 40 47 55 59 57
40 39 40 43 46 46 45 43 41 36 28 28 29 35 41 48 55 62 64 65 62 60 63 64 70 74 78 83 82 86 84 70 52 46 49 58 46 29 32 39 46 54 56
36 38 39 40 41 40 39 38 32 29 30 28 26 29 38 44 48 53 62 65 68 67 66 67 70 77 86 90 88 92 82 69 52 45 50 59 52 37 27 30 38 49 49
37 36 36 35 34 33 31 24 24 24 25 26 27 31 33 37 44 51 53 62 64 65 65 68 74 76 82 91 96 96 82 68 53 44 45 53 55 49 35 29 31 36 52
43 39 35 31 28 27 27 24 24 24 22 24 26 31 31 30 33 42 47 51 56 64 65 66 70 79 83 89 93 91 81 73 59 45 43 48 57 57 54 33 26 32 55
46 43 38 35 34 33 28 28 28 26 26 27 25 27 30 30 32 32 34 36 45 56 64 65 69 75 79 84 91 92 90 78 65 57 50 51 63 67 63 50 29 32 48
44 45 40 36 36 38 34 32 33 32 31 29 28 25 23 23 23 25 30 29 32 38 52 66 70 72 77 80 79 89 94 86 72 65 61 60 64 74 66 59 44 32 41
49 46 44 39 38 38 35 36 36 33 32 32 28 25 24 22 20 22 26 26 28 35 39 52 65 71 76 79 78 78 89 90 80 70 68 67 73 75 74 60 53 44 36
55 53 50 47 43 44 38 40 38 34 35 33 27 25 23 21 20 21 24 25 27 31 38 43 52 64 69 72 78 78 76 80 84 71 69 70 75 77 74 69 55 48 44
68 63 56 52 49 50 48 42 38 38 37 31 26 24 20 18 17 19 22 23 23 31 34 35 41 50 61 70 74 74 77 70 75 79 78 78 70 77 82 78 68 63 54
68 61 57 52 48 49 44 43 41 37 37 31 24 23 20 19 16 16 18 20 19 24 32 36 35 39 46 55 66 72 76 74 65 72 89 91 82 71 83 88 84 73 70
68 58 53 51 50 49 51 45 37 36 35 25 22 20 18 17 15 16 18 20 21 23 24 30 35 36 39 41 50 65 73 73 75 68 75 90 92 80 72 75 80 84 81
49 49 49 47 47 47 42 38 39 30 25 22 22 20 16 16 16 17 20 21 22 23 27 30 31 39 38 41 45 52 64 73 78 68 71 79 92 89 80 75 91 89 86
45 45 45 43 40 36 35 39 37 35 25 24 23 17 14 16 18 20 21 22 23 25 25 27 30 31 40 41 43 49 53 66 74 76 71 79 80 88 87 82 92 89 91
56 52 47 45 42 41 45 48 45 36 30 25 18 14 16 18 20 21 22 22 22 24 25 27 27 31 35 41 39 40 49 53 62 69 71 83 85 89 89 84 82 83 81
58 55 53 56 54 52 50 45 33 29 29 23 18 18 19 21 24 24 25 26 27 26 27 27 28 30 34 36 40 41 43 49 56 68 72 76 84 87 89 90 82 93 83
53 56 59 59 62 60 42 34 32 28 22 20 19 20 23 25 27 29 30 31 32 34 34 34 33 33 35 36 36 42 42 42 52 59 72 75 81 87 89 90 92 90 86
46 43 41 42 38 31 25 19 18 17 18 21 22 23 25 27 29 32 34 35 36 39 41 41 40 38 37 35 34 37 45 42 41 56 63 71 74 83 88 89 90 86 85

GFSGL_prec_cthk_276.txt.gz
RH
55 59 59 58 56 60 64 61 57 57 57 55 55 54 54 51 52 56 63 72 82 86 82 77 86 93 95 94 95 99 98 91 86 61 50 58 78 81 77 91 89 88 73
54 60 58 62 66 70 69 65 62 65 68 68 67 63 56 70 71 60 61 66 75 76 71 76 85 90 93 92 92 96 94 88 81 59 45 57 67 77 71 76 66 65 55
49 58 55 56 60 66 65 58 57 59 63 67 66 69 67 64 59 61 60 53 62 67 71 76 80 83 88 89 90 93 94 87 77 58 43 56 64 64 61 66 68 66 63
45 52 54 53 52 55 57 57 59 60 60 63 63 61 58 56 56 50 45 48 51 54 63 75 79 76 88 87 88 90 94 90 73 58 38 51 61 58 57 59 65 65 62
32 38 48 49 48 49 53 57 60 70 73 63 59 57 56 50 44 41 44 46 50 57 64 71 74 74 79 80 81 86 87 91 70 58 38 42 59 59 57 58 56 58 58
27 28 31 36 42 45 49 55 78 80 72 62 56 49 41 36 38 44 53 63 64 69 65 65 65 66 70 75 76 81 80 88 70 56 44 35 48 60 59 62 59 63 64
29 29 31 34 37 40 48 62 69 67 64 58 46 36 37 41 44 49 52 60 63 62 63 64 62 64 69 73 79 82 84 86 69 55 50 33 39 54 60 65 63 62 60
32 34 35 36 39 41 44 47 51 56 54 48 30 34 30 38 45 49 58 59 59 57 58 60 60 62 70 76 80 84 85 83 68 53 56 44 34 44 52 61 59 59 58
31 33 34 35 37 40 42 45 47 49 46 34 26 24 31 36 43 49 56 58 55 53 56 60 62 69 73 76 86 91 84 79 70 50 56 56 35 35 46 54 58 54 55
30 30 33 35 37 41 45 46 44 43 39 29 26 26 29 31 37 43 50 52 54 56 56 60 64 68 74 79 85 85 83 76 70 49 55 58 47 34 34 44 51 54 55
31 34 37 38 39 40 41 40 39 37 33 28 25 26 29 31 36 38 40 42 47 50 57 59 63 67 73 78 82 88 90 77 68 50 48 61 56 41 32 32 39 48 51
36 38 42 44 43 42 40 37 34 28 24 23 23 26 28 28 29 29 35 37 43 45 49 54 61 63 69 73 85 94 89 77 68 56 45 48 58 61 36 30 30 38 45
41 41 45 47 44 40 36 33 28 23 22 24 24 25 26 25 26 27 25 28 33 37 43 52 57 62 68 73 80 85 86 78 73 63 50 46 51 63 63 37 30 27 43
46 45 45 43 43 40 35 30 27 25 24 25 25 26 25 25 23 22 25 27 31 33 34 45 54 62 69 72 76 80 86 89 83 71 57 52 52 62 70 65 37 26 37
59 53 51 48 48 44 39 34 31 30 30 30 29 27 28 25 21 20 20 21 24 26 30 37 49 57 67 73 75 73 76 81 88 83 69 61 63 64 72 69 53 37 36
71 66 64 62 58 54 49 43 40 35 36 35 32 30 27 22 19 18 22 23 24 26 29 34 41 51 60 67 75 78 73 76 76 82 89 71 69 73 74 72 60 44 35
81 73 69 67 63 62 54 50 44 42 41 38 35 32 27 20 19 17 19 24 25 25 28 32 35 41 51 60 66 72 75 69 68 71 80 83 82 76 79 75 63 54 45
84 80 76 72 67 66 62 53 49 46 44 41 35 33 29 22 20 19 18 17 22 24 28 28 31 34 41 50 57 64 70 69 71 72 71 82 87 87 82 83 75 63 63
84 89 88 81 73 69 62 56 51 48 46 42 36 33 28 21 21 20 16 17 20 22 22 28 28 30 30 39 46 53 57 63 66 64 72 70 76 86 88 83 88 84 70
80 88 86 83 77 60 54 50 48 49 43 42 36 31 25 22 20 18 16 17 19 20 24 29 29 29 30 29 36 44 53 61 63 62 69 71 66 78 91 88 90 90 87
85 87 81 70 57 55 52 48 54 43 55 39 35 26 19 17 18 16 16 18 18 19 21 23 29 29 29 31 30 37 51 56 60 73 73 73 74 77 91 94 89 81 81
78 74 65 59 62 55 48 48 50 44 36 29 27 24 21 21 22 20 20 21 19 21 20 21 24 28 30 28 31 32 38 48 53 56 69 68 80 77 81 89 92 85 98
66 60 56 47 44 42 42 41 38 36 39 43 44 39 30 28 24 21 21 21 22 23 23 22 24 26 27 30 31 35 38 39 49 53 57 67 74 69 77 85 94 91 95
62 62 61 59 54 50 50 49 48 45 45 49 47 42 34 27 25 24 23 24 24 26 26 25 26 28 29 30 31 31 38 39 39 50 55 58 73 82 72 85 94 96 90
70 65 62 57 55 51 49 47 52 55 52 38 34 32 29 24 23 24 26 27 27 30 29 30 32 34 34 35 36 34 34 35 40 39 47 54 62 81 79 85 96 95 92
49 47 48 49 51 51 51 54 59 55 38 34 31 25 22 22 24 28 31 29 31 31 32 33 34 36 38 39 38 38 36 33 33 36 41 48 60 65 83 85 89 88 89

GFSGL_prec_cthk_279.txt.gz
RH
50 42 45 43 45 44 49 61 63 60 62 66 68 67 64 60 57 56 58 59 59 58 64 70 75 81 87 94 93 93 96 98 95 71 57 58 66 65 68 78 86 83 85
50 43 53 59 60 61 67 68 66 60 59 64 65 64 62 62 58 58 57 55 50 50 53 59 62 80 82 88 91 90 95 96 92 61 56 57 60 61 61 62 57 67 73
41 45 51 53 55 58 62 62 58 54 53 57 60 62 59 57 55 53 48 44 48 50 54 61 69 76 75 82 87 90 92 92 86 62 58 53 61 54 56 56 59 58 58
38 41 48 51 52 51 51 53 55 57 56 63 66 64 58 53 45 39 41 43 48 55 57 68 70 67 63 71 79 83 90 90 80 63 59 48 61 54 54 55 56 59 57
32 33 40 48 50 49 48 48 50 55 62 71 71 62 54 42 37 38 42 50 53 60 62 63 63 61 65 69 76 80 82 90 77 58 57 46 59 57 55 56 56 54 53
28 31 33 35 38 42 42 41 46 56 63 71 66 58 46 34 37 41 45 50 55 59 57 58 58 61 63 69 76 79 84 85 76 53 55 43 50 58 53 56 56 58 60
28 30 32 32 32 33 37 39 42 47 59 60 58 50 30 32 30 39 44 49 53 51 50 50 54 58 62 69 75 82 92 83 78 53 51 42 41 51 58 59 59 60 63
28 29 30 31 32 32 34 38 41 44 45 45 45 37 26 23 29 36 44 50 50 49 48 50 54 58 62 68 76 84 88 84 75 61 50 48 32 42 52 58 60 63 61
26 27 31 33 35 37 39 39 41 44 48 48 44 29 22 23 26 31 36 44 47 48 47 46 52 57 63 68 76 81 84 80 75 60 51 50 37 34 44 52 54 55 58
32 31 31 32 33 36 38 41 45 48 48 46 39 27 25 23 26 29 33 36 39 42 42 43 48 54 62 65 70 77 80 78 73 60 51 56 48 34 35 44 52 53 53
43 41 32 31 34 38 43 45 46 46 45 40 34 27 25 22 23 26 30 32 35 38 39 42 45 50 57 63 63 72 85 79 74 60 55 54 54 48 32 32 40 48 51
49 46 47 40 40 41 45 50 48 46 41 36 29 24 24 25 26 27 27 24 21 33 36 40 42 48 53 59 64 68 64 72 75 68 57 50 51 57 51 31 28 33 41
67 55 56 57 49 46 46 53 51 45 40 31 27 25 25 25 25 25 26 26 22 26 28 38 41 45 52 59 66 63 61 69 73 72 63 55 49 53 61 55 35 28 29
72 73 62 69 62 52 46 47 44 41 36 30 27 27 26 26 25 26 25 27 27 25 25 30 38 44 53 57 64 67 62 61 64 77 72 65 53 52 59 68 60 39 30
63 79 68 72 68 59 50 47 45 41 35 31 30 30 29 27 26 24 22 22 23 24 25 27 34 41 50 54 57 58 58 61 59 65 70 71 66 61 65 70 71 56 37
80 86 81 69 68 61 55 51 47 44 39 36 36 34 31 30 28 25 21 18 18 22 25 28 32 35 46 53 58 64 64 65 63 56 59 75 78 71 78 75 75 69 49
82 75 73 77 78 70 68 64 60 57 53 49 42 37 34 32 31 27 22 20 23 22 24 26 32 32 36 42 53 58 65 65 68 65 61 68 75 80 78 83 79 75 64
81 78 76 77 76 76 77 76 71 69 59 52 46 41 36 34 32 29 23 21 24 22 23 23 27 28 30 30 39 50 54 58 61 63 62 63 70 78 82 81 80 71 78
79 81 74 79 80 70 72 75 68 65 56 54 51 46 41 36 34 27 22 20 23 22 22 24 25 27 27 28 30 37 44 51 57 60 60 65 67 69 74 82 86 80 87
85 82 77 74 72 71 72 72 75 74 64 54 50 46 42 39 35 26 22 20 19 19 19 20 22 25 28 30 29 30 37 47 51 60 62 62 66 66 69 74 81 88 84
83 80 76 73 71 69 76 79 75 61 49 48 51 49 47 38 29 24 22 19 19 18 16 17 20 22 24 28 29 30 33 38 42 51 56 60 76 71 73 73 81 93 90
79 74 71 72 75 73 78 62 51 44 49 49 55 46 40 31 28 26 26 23 23 23 22 21 18 20 20 23 28 32 32 35 39 43 52 50 59 77 74 76 83 86 91
82 76 72 70 68 70 67 58 56 56 51 56 49 46 41 40 41 38 33 26 25 23 23 23 24 25 23 22 21 28 30 32 34 39 46 48 52 52 71 72 80 81 91
74 68 65 63 60 58 57 64 63 56 53 47 44 43 42 42 44 46 38 32 28 24 25 25 27 28 26 27 24 25 27 31 32 38 37 44 53 59 55 66 76 75 85
65 63 62 63 67 63 60 56 56 55 53 51 50 49 50 40 37 38 37 34 30 27 27 29 31 29 30 30 28 29 30 31 33 33 34 37 41 56 56 57 73 82 81
69 68 67 64 62 59 58 57 53 50 49 49 50 54 42 38 36 33 32 29 27 29 32 30 29 30 32 33 32 33 34 36 35 34 34 31 32 38 53 64 62 79 82

GFSGL_prec_cthk_285.txt.gz
RH
53 56 50 45 43 42 43 35 31 36 54 56 54 51 56 60 62 60 49 43 45 48 56 62 64 71 75 80 69 71 81 92 96 91 61 57 55 57 52 60 67 70 70
55 58 59 50 39 41 39 35 44 62 62 57 52 52 61 61 66 58 43 39 45 49 59 60 61 66 65 68 65 72 82 94 98 85 61 51 56 57 52 59 68 81 68
40 40 46 43 27 33 35 43 53 59 59 55 56 58 63 65 67 56 36 38 42 53 54 58 59 60 59 63 65 71 85 96 95 81 62 48 59 54 51 55 66 66 61
36 37 38 38 29 32 41 44 45 46 46 49 55 62 61 62 61 48 31 32 40 50 55 54 53 52 56 60 63 70 81 90 90 73 63 49 58 52 53 55 56 57 49
33 33 35 37 36 29 39 45 46 48 52 56 56 60 57 59 50 39 28 32 42 49 51 48 48 47 49 57 62 71 82 92 84 67 60 49 58 57 55 57 55 56 54
31 30 33 35 37 33 33 38 41 44 46 50 52 52 56 53 43 34 25 30 40 49 50 51 45 43 47 54 60 70 81 83 80 70 61 47 54 61 59 53 60 56 58
35 30 32 32 33 34 36 39 41 42 45 46 44 44 45 45 44 26 24 28 35 42 45 41 44 42 47 52 57 64 75 85 72 68 66 45 49 57 59 53 61 60 57
40 33 32 32 34 36 37 39 40 41 44 42 44 43 44 45 42 23 25 28 30 35 36 37 39 40 44 49 55 61 62 74 68 72 70 53 42 51 55 53 59 61 63
44 40 36 33 34 35 37 40 42 40 40 41 41 42 44 43 38 21 27 31 28 32 33 33 37 39 42 46 53 56 62 65 62 63 66 61 47 43 46 51 49 52 53
52 45 42 41 38 36 36 36 38 38 39 41 40 42 43 42 33 22 24 31 30 29 28 30 33 38 42 46 52 55 60 56 55 56 52 61 55 46 40 51 53 55 56
62 55 56 49 44 45 40 37 38 40 41 38 40 42 42 36 29 24 19 25 24 30 28 32 33 36 40 44 50 55 53 54 53 56 59 57 60 58 51 41 49 54 55
85 74 65 57 52 49 48 47 42 38 40 42 42 42 38 32 27 22 20 22 23 25 28 31 33 35 38 40 46 46 46 45 51 59 67 64 60 61 61 63 47 44 45
87 77 80 76 64 60 52 53 47 51 40 43 42 40 39 38 28 22 21 21 24 25 26 28 29 32 38 41 45 45 45 51 56 61 66 72 74 72 68 63 71 50 43
71 87 82 78 76 66 60 61 56 55 55 51 44 41 39 34 30 25 24 28 27 24 26 28 27 30 36 42 48 46 52 53 58 60 60 69 73 76 71 72 62 65 60
57 79 96 98 93 84 70 65 70 71 67 58 52 44 38 37 32 31 30 29 27 24 28 29 31 32 33 41 48 52 52 52 49 56 59 59 62 67 70 75 77 82 75
62 64 77 90 92 91 84 70 66 77 80 64 58 46 42 36 33 34 34 31 30 29 35 32 31 32 32 34 45 51 50 49 53 52 57 59 61 63 65 76 77 81 80
66 72 67 74 87 87 82 79 66 74 71 66 61 55 47 44 39 35 36 32 32 36 37 33 32 31 30 32 37 42 49 47 48 52 57 60 63 60 62 70 76 79 79
64 71 75 73 75 77 78 76 71 69 65 61 61 58 48 42 41 39 39 33 37 41 40 38 34 29 27 30 30 34 42 45 49 57 61 57 58 58 58 64 71 76 76
67 76 73 77 77 82 81 72 69 69 66 64 64 55 49 49 44 42 44 44 43 47 48 37 34 31 27 26 25 29 32 34 38 41 44 64 57 60 56 59 61 69 75
64 72 72 81 84 81 80 74 71 70 68 62 57 52 48 49 49 53 56 50 48 49 51 39 33 29 25 23 24 26 28 29 31 32 37 41 49 57 69 67 63 60 61
55 64 78 86 89 84 87 81 74 74 69 63 53 49 46 52 54 56 57 57 54 52 52 35 34 30 23 23 23 25 24 25 27 29 32 34 37 42 49 53 61 59 59
64 65 68 77 88 92 90 91 83 80 73 63 57 50 46 47 54 61 59 56 51 41 41 35 30 30 25 24 24 25 26 25 26 27 29 30 31 39 40 42 46 55 57
70 71 69 83 90 94 96 95 92 87 76 69 60 54 57 59 60 61 57 46 38 44 43 40 35 32 28 27 26 25 25 23 23 24 26 28 30 32 35 37 42 47 50
82 89 93 93 97 88 96 87 94 87 77 69 67 64 64 65 66 56 53 46 45 46 46 44 39 37 33 31 29 28 28 27 28 26 26 26 27 29 31 33 38 40 50
93 87 97 97 97 91 91 84 82 80 75 67 64 63 60 64 62 52 47 50 47 45 44 39 39 39 38 36 33 32 33 32 31 31 30 30 29 27 28 30 35 37 40
85 87 89 83 94 92 81 69 67 64 61 60 61 60 55 55 55 57 54 51 48 46 36 36 35 35 39 40 37 35 34 34 34 33 32 30 30 30 31 34 35 37 36

GFSGL_prec_cthk_288.txt.gz
RH
43 48 46 47 43 40 42 44 42 35 36 47 53 52 49 56 56 64 57 40 37 40 54 57 56 57 59 59 60 63 71 89 90 85 61 49 55 55 48 51 60 62 64
38 43 52 55 50 42 34 34 33 33 47 59 55 50 49 57 58 60 52 34 33 37 52 54 52 52 53 55 58 65 74 88 96 82 48 47 53 50 49 54 67 64 62
34 37 38 38 45 37 26 31 31 40 53 54 51 49 52 57 57 55 45 30 27 38 49 49 47 49 47 53 56 63 75 94 87 72 47 48 54 47 49 58 67 64 49
35 33 35 36 39 33 25 33 37 43 43 43 45 47 55 59 52 53 40 25 30 41 45 44 44 41 42 50 56 62 75 84 75 64 57 47 54 48 47 52 61 60 44
38 34 34 36 37 36 30 26 38 42 43 43 46 48 54 55 51 45 36 24 27 36 45 44 39 37 40 49 53 60 68 78 71 70 51 47 55 54 52 52 51 54 57
42 39 35 36 34 36 33 30 28 31 35 40 40 47 53 46 46 40 32 23 27 32 38 37 34 35 41 46 52 57 60 62 70 68 55 44 53 61 58 51 58 61 64
44 44 39 33 34 33 34 31 30 33 38 39 39 43 42 41 39 38 31 22 26 28 30 33 33 35 40 43 50 55 56 59 58 74 62 44 50 59 59 59 61 63 62
47 46 46 41 36 35 35 35 35 36 39 40 41 40 38 38 37 35 29 22 25 26 30 30 31 33 38 43 49 52 56 54 56 65 63 56 48 52 58 61 64 68 62
55 51 51 49 44 40 39 38 36 36 39 40 40 40 36 38 38 34 30 28 26 24 25 26 29 32 35 41 48 50 52 48 52 58 56 61 51 47 52 51 56 60 60
57 61 57 54 52 50 44 41 39 36 35 36 36 35 36 37 37 33 29 29 28 26 22 24 29 33 36 39 45 48 50 45 46 49 55 57 61 53 44 53 50 61 60
55 62 65 61 55 51 50 48 44 41 40 38 36 37 35 36 35 29 25 22 24 27 24 27 29 33 35 40 42 46 47 45 43 50 52 52 56 60 58 47 54 60 62
42 64 72 72 61 62 67 58 49 47 47 45 41 40 39 39 34 29 24 21 21 24 24 27 27 31 33 37 42 44 40 40 40 48 55 60 57 56 57 62 54 46 58
35 41 63 75 87 79 77 78 63 62 55 54 54 48 46 41 37 30 26 25 25 25 25 28 29 31 35 37 40 40 37 42 48 54 58 68 70 70 66 60 65 68 52
33 39 43 71 88 80 98 97 88 81 70 64 61 61 53 50 42 34 30 29 30 31 31 31 31 32 39 37 39 39 41 48 49 53 55 56 63 70 69 69 68 60 62
32 39 44 52 62 77 88 76 97 89 79 73 64 64 57 51 43 33 33 35 31 31 31 32 33 34 40 39 40 40 42 47 48 50 56 58 60 63 62 68 72 76 73
25 32 43 59 62 61 74 66 66 80 91 73 73 63 58 51 39 34 37 34 33 33 33 34 38 36 38 39 37 44 42 45 44 47 51 55 59 60 60 60 70 74 77
21 33 40 55 63 69 69 72 71 95 92 87 81 75 68 59 55 48 42 39 37 35 35 36 39 39 39 39 39 43 42 43 48 44 45 51 49 54 59 59 61 66 72
21 29 38 51 64 75 79 79 69 76 92 82 82 74 68 60 55 53 49 42 44 45 44 39 39 38 40 37 35 36 37 42 46 46 46 48 50 50 48 53 58 60 64
27 26 34 45 56 67 83 85 87 86 94 90 79 75 67 58 51 47 46 48 51 48 44 40 41 40 44 44 32 29 31 30 36 40 42 47 50 58 59 56 61 56 55
31 30 39 47 58 60 75 85 87 84 83 81 74 65 57 53 52 50 53 52 54 51 53 47 46 49 49 44 33 29 27 26 28 31 32 33 38 44 48 52 55 60 63
37 36 40 46 53 64 76 82 83 83 76 72 69 66 63 63 58 56 52 50 50 57 54 48 47 51 52 39 31 27 24 24 24 27 28 29 32 41 42 43 49 53 54
47 44 46 52 55 60 94 90 81 85 82 83 81 71 68 66 63 60 53 49 48 49 53 53 52 50 42 35 28 27 23 23 23 24 26 25 29 32 35 35 41 42 48
51 51 52 56 62 70 83 92 90 87 80 80 78 79 75 71 68 57 54 54 48 51 53 52 46 41 41 35 29 26 23 23 22 21 23 25 27 28 30 34 34 37 42
57 55 60 65 71 73 80 81 84 91 82 86 83 83 78 72 65 59 59 56 59 59 57 48 42 41 41 41 38 31 29 28 26 25 26 27 26 28 27 30 33 34 35
70 69 68 75 85 90 94 96 89 89 88 90 89 91 85 78 69 67 68 64 62 58 46 45 43 42 42 42 42 39 36 31 28 27 28 30 30 31 33 32 32 32 33
76 85 86 89 89 90 95 99 96 93 93 92 89 87 84 80 73 64 62 56 51 55 56 52 46 44 45 42 39 37 37 37 34 34 33 35 36 37 37 35 34 35 34

GFSGL_prec_cthk_291.txt.gz
RH
33 35 36 41 43 41 39 40 42 41 38 40 47 48 45 43 52 52 52 41 30 30 41 47 43 46 45 47 52 54 64 76 81 73 60 50 50 46 43 46 53 62 69
30 31 32 33 33 35 34 29 31 30 30 37 49 45 46 43 51 51 48 42 26 30 41 42 42 42 39 48 51 56 65 72 71 64 55 49 47 46 48 53 54 52 53
33 33 33 31 32 32 30 24 30 24 30 42 48 46 44 48 54 49 49 38 25 30 40 38 39 35 37 43 49 54 62 68 68 62 43 49 46 44 50 55 56 50 52
35 35 36 34 33 33 30 24 30 29 31 40 44 44 47 51 52 59 49 36 25 27 35 38 35 32 36 40 47 54 59 61 56 60 41 48 48 43 48 50 53 46 48
42 38 36 38 38 34 32 29 26 33 39 44 46 47 47 42 52 52 46 36 27 25 30 31 30 30 37 40 45 51 55 49 54 56 46 47 51 47 44 45 47 52 45
43 43 39 39 40 39 36 35 30 27 28 33 35 38 37 47 53 52 40 36 28 26 25 27 28 29 34 39 44 48 49 49 53 52 55 46 49 51 49 49 56 59 58
54 51 47 44 41 41 40 38 36 31 32 33 37 40 39 48 47 46 40 35 29 23 24 24 25 27 32 37 42 45 47 48 51 55 56 53 45 50 54 56 54 59 60
48 58 55 51 48 44 42 42 39 37 33 33 37 38 43 41 42 40 38 35 29 22 21 24 23 29 32 35 40 45 45 45 48 51 53 59 48 46 54 59 59 58 61
46 48 58 60 54 54 51 48 46 40 39 38 41 44 45 46 43 37 35 34 32 27 22 25 27 30 33 37 42 45 43 41 43 47 45 53 60 46 46 51 59 58 56
35 46 51 61 63 68 56 51 50 50 49 50 50 47 47 47 42 40 36 36 34 31 23 25 28 31 33 37 44 45 42 40 41 41 44 49 57 61 47 45 50 56 56
25 26 35 54 60 65 70 63 62 64 60 58 52 52 51 51 47 41 39 38 35 31 25 24 28 32 33 36 43 45 43 38 37 41 42 45 52 58 61 53 48 54 59
24 26 25 34 49 60 64 76 80 84 74 64 59 57 60 51 49 42 42 37 35 30 26 26 29 32 35 37 43 44 41 37 38 41 45 46 48 52 60 65 57 51 57
18 22 25 30 36 43 60 69 82 96 97 90 71 70 66 61 52 46 41 38 31 30 27 30 33 35 37 37 40 40 35 36 44 46 50 56 55 54 52 59 65 62 51
17 16 18 25 37 41 45 58 72 87 90 97 91 94 86 72 62 57 47 40 34 33 30 34 36 38 40 41 39 38 40 44 47 47 49 51 57 57 57 61 64 63 64
22 18 15 16 28 41 45 45 48 61 69 72 82 89 81 82 83 67 54 46 38 38 39 38 39 43 43 42 41 42 43 45 46 45 44 47 52 53 56 55 63 67 68
28 25 22 20 24 30 38 43 47 50 48 41 46 63 78 77 81 72 50 43 44 47 45 46 43 43 42 39 43 42 44 44 44 45 42 44 50 51 52 54 58 62 70
29 32 30 21 28 34 35 39 38 51 61 53 56 61 61 66 69 53 46 48 53 54 51 50 47 47 43 42 45 46 47 45 45 46 46 43 42 47 50 48 51 56 62
36 40 40 30 29 35 41 49 47 48 56 63 68 77 67 59 71 71 56 56 60 62 58 53 48 47 42 39 41 47 53 49 44 41 45 47 43 44 43 46 48 48 52
44 49 49 40 34 34 44 57 62 59 58 60 67 66 64 68 70 70 55 50 53 61 59 55 52 47 41 40 42 47 52 51 45 40 41 45 42 40 48 50 56 49 53
59 53 52 42 38 37 45 48 63 69 68 66 75 79 75 71 64 62 60 57 57 67 67 56 51 42 42 42 44 47 49 45 42 38 35 37 41 43 39 40 43 48 51
59 53 46 43 43 40 46 58 55 64 73 79 77 90 92 90 81 70 62 63 66 70 64 56 52 46 40 45 45 45 49 35 34 29 28 28 32 34 30 37 40 40 53
56 55 49 47 51 48 46 55 56 64 65 69 77 80 84 77 70 67 70 74 71 66 62 57 50 46 42 42 45 51 44 29 29 25 25 26 26 29 30 30 36 40 41
59 60 52 54 57 59 53 56 58 58 64 68 77 77 75 84 79 77 79 74 68 65 61 56 52 51 52 50 47 42 33 30 27 24 23 24 26 27 27 28 29 33 34
58 57 61 59 63 65 69 70 65 66 72 75 74 78 81 85 86 80 76 72 67 66 58 53 51 54 54 47 41 42 39 35 30 26 25 26 26 24 25 24 27 30 34
59 62 66 64 67 67 74 76 79 80 82 83 84 86 89 84 77 75 73 74 71 67 61 57 57 58 52 42 44 43 41 38 37 34 31 31 29 28 28 29 29 29 30
69 68 70 70 71 78 80 87 89 91 91 90 93 95 91 83 75 73 81 78 76 73 66 61 60 52 46 48 48 45 44 43 43 41 40 41 39 38 37 36 38 38 35